Find Flock 4g-11

NORAD ID: 62629 Int'l Des: 2025-009 Owner: PLAN Country: US Constellation: planet operational
LEOCIRCULARRETROGRADESSO

实时位置

正在加载3D地球...

关于 Flock 4g-11

正在加载描述...

即将过境

Passes for default location (London). Set your location on the main map for personalized predictions.

高度历史

Loading altitude history...

两行轨道根数

1 62629U 25009W 26106.18486547 .00005663 00000-0 20940-3 0 9997
2 62629 97.3938 188.0417 0003598 157.0669 203.0732 15.28098152 69445
Epoch: Apr 16, 2026 • Age: 27 hours

当前状态

高度 481.9 km
速度 7.63 km/s
星下点 3.98°N, 45.41°E
发射日期 Jan 14, 2025
运行时间 1.2 years
类型 earth observation

技术详情

分类 Payload
质量 5.70 kg
干质量 5.70 kg
总质量 5.70 kg
长度 0.30 m
直径 0.10 m
跨度 0.30 m
形状 Box+2 pan
制造商 PLAN
平台类型 Cubesat 3U
阶段状态 In Orbit
所有者/国家 PLAN/US

Most Searched